Location: Frihed
(55.1970°N, 11.5960°E)
Time: 17:58:11
(UTC+00:00)

Daily predictions for brighter satellites

Satellite Brightness Start Highest point End
(mag) Time Altitude Azimuth Time Altitude Azimuth Time Altitude Azimuth
Cosmos 1315 Rocket 2.9 20:45:19 10° NNW 20:49:26 84° ENE 20:53:33 10° SSE
Cosmos 2333 Rocket 2.6 20:44:16 10° S 20:49:38 45° ESE 20:55:04 10° NE
ATLAS 2AS CENTAUR R/B 3.2 20:42:30 10° NW 20:50:20 75° NE 20:57:33 10° ESE
Cosmos-2242 4.1 20:48:40 10° NNW 20:52:46 43° W 20:56:54 10° SSW
Resurs 01 Rocket 4.0 20:50:51 10° SW 20:54:06 20° W 20:57:21 10° NW
Cosmos 1818 3.6 20:51:26 10° SW 20:56:52 77° SE 21:02:21 10° NE
Cosmos 2221 2.8 20:53:30 10° N 20:57:52 61° ENE 21:02:12 10° SSE
Cosmos 773 Rocket 4.1 20:54:23 10° SSW 20:59:39 69° ESE 21:04:56 10° NNE
SL-16 R/B 3.5 20:55:20 10° WSW 21:00:49 47° NW 21:06:19 10° NNE
GEOS 3 Rocket 3.7 20:56:10 10° NE 21:01:33 65° SE 21:06:54 10° SW
ERS-1 Rocket 3.5 20:58:13 10° S 21:03:10 57° WSW 21:08:10 10° NNW
USA 215 3.6 20:58:46 10° ENE 21:04:56 42° SE 21:11:04 10° SSW
Cosmos 2278 Rocket 2.3 21:01:36 10° NW 21:07:20 89° ENE 21:13:00 10° SSE
Cosmos 1892 3.8 21:07:08 10° SSE 21:10:24 28° E 21:13:43 10° NNE
Cosmos 1844 Rocket 4.3 21:07:04 10° NW 21:11:36 26° WSW 21:16:07 10° SSW
ATLAS 5 CENTAUR R/B 1.6 21:09:06 10° SW 21:13:23 80° SE 21:18:20 10° NE
Aureole 2 Rocket 4.0 21:11:44 10° N 21:13:52 19° NE 21:16:03 10° E
Meteor 1-11 4.4 21:08:36 10° SSW 21:14:16 85° WNW 21:20:01 10° NNE
Cosmos 1943 Rocket 3.8 21:10:08 10° NNW 21:15:08 30° NE 21:20:07 10° E
SPOT 5 3.7 21:15:07 10° S 21:19:57 47° W 21:24:33 10° NNW
Lacrosse 5 rocket 1.7 21:16:56 10° W 21:21:08 67° N 21:25:05 10° E
Cosmos 2056 Rocket 4.1 21:16:47 10° NNW 21:22:06 55° NE 21:27:26 10° SE
SL-16 R/B 4.1 21:19:58 10° ESE 21:22:26 13° E 21:24:54 10° ENE
Nadezhda 3 Rocket 4.2 21:16:38 10° N 21:23:00 65° ENE 21:29:11 11° SSE
Spot 4 4.3 21:20:03 10° SE 21:24:40 51° ENE 21:29:19 10° N
USA 81 4.4 21:21:51 10° SSW 21:27:07 69° W 21:32:25 10° N
Cosmos 2058 3.4 21:25:00 11° SSE 21:28:51 44° E 21:32:49 10° NNE
Cosmos 2154 Rocket 4.4 21:23:10 10° SSE 21:29:04 49° E 21:35:03 10° NNE
Cosmos 1408 3.7 21:29:06 12° SSE 21:31:52 29° E 21:35:00 10° NNE
TSX-5 4.0 21:30:52 10° NW 21:34:09 50° WSW 21:37:35 12° SSE
In-Cosmos 22 Rocket 4.3 21:30:07 10° S 21:35:18 58° E 21:40:33 10° NNE
Cosmos 2074 Rocket 4.0 21:30:07 10° S 21:36:21 79° E 21:42:35 10° NNE
Cosmos 1076 Rocket 3.8 21:36:08 11° S 21:40:03 52° E 21:44:14 10° NNE
USA 267 3.6 21:34:09 10° SE 21:40:31 51° SW 21:46:54 10° WNW
Cosmos 1680 Rocket 4.1 21:35:41 10° S 21:40:33 40° ESE 21:45:30 10° NE
CZ-4C R/B 3.6 21:37:32 10° NW 21:43:47 51° NNE 21:51:16 10° E
Cosmos 1842 Rocket 4.4 21:40:26 10° NNW 21:44:36 45° W 21:48:44 10° SSW
JB-3 4.2 21:42:04 10° NNE 21:45:57 86° ESE 21:49:47 10° SSW
COSMOS 2455 3.6 21:41:36 10° NW 21:47:31 52° NE 21:53:25 10° ESE
Cosmos 2322 Rocket 4.2 21:43:24 10° W 21:48:25 32° NW 21:53:28 10° NNE
MTI 3.8 21:46:53 10° NNE 21:49:59 76° WNW 21:53:03 10° SSW
Cosmos 2151 4.0 21:47:18 13° SSE 21:50:34 32° E 21:54:24 10° NNE
ATLAS CENTAUR R/B 3.2 21:53:36 10° W 21:55:51 16° WSW 21:58:05 10° SSW
Cosmos 923 Rocket 4.1 21:52:47 10° SSW 21:57:59 65° ESE 22:03:15 10° NNE
Cosmos 2327 Rocket 4.5 21:52:20 10° S 21:58:31 80° E 22:04:40 10° NNE
Cosmos 1933 4.4 21:55:17 10° N 21:59:01 35° ENE 22:02:24 12° SE
Cosmos 1151 Rocket 3.9 21:55:25 10° N 21:59:33 40° ENE 22:03:13 12° SE
Cosmos 2369 Rocket 3.4 21:54:27 10° NNW 21:59:41 37° NE 22:04:52 10° ESE
Cosmos 1825 2.8 21:58:08 15° SSE 22:00:57 41° E 22:04:33 10° NNE
ALOS 2 3.0 21:58:03 13° SE 22:01:51 56° ENE 22:06:10 10° N
APEX 3.8 21:59:53 10° NNW 22:02:28 32° NE 22:04:59 10° ESE
Cosmos 1980 3.9 21:57:20 10° SSW 22:02:49 56° ESE 22:08:22 10° NE
Cosmos 371 Rocket 3.7 22:02:24 10° NNW 22:07:15 59° ENE 22:11:47 11° SE
COSMOS 2428 2.9 22:02:07 10° SW 22:07:47 75° NW 22:13:30 10° NNE
GP-B 3.9 22:03:43 10° NNE 22:07:57 41° E 22:11:23 14° SSE
Cosmos 1295 Rocket 4.5 22:06:31 12° S 22:12:13 75° E 22:18:20 10° NNE
Cosmos 1624 Rocket 4.1 22:07:23 10° NNW 22:12:38 71° WSW 22:16:57 15° SSE
NOSS 3-4 (A) 4.1 22:06:40 10° NW 22:13:19 54° SW 22:19:46 14° SSE
NOSS 3-4 (C) 4.1 22:06:47 10° NW 22:13:25 54° SW 22:19:54 14° SSE
NOSS 0 Rocket 3.9 22:09:05 10° SSW 22:15:13 75° ESE 22:21:24 10° NE
Terra 3.7 22:11:54 10° SW 22:15:39 23° W 22:19:25 10° NW
Cosmos 1782 4.3 22:16:41 10° N 22:20:07 27° ENE 22:23:32 10° SE
SL-4 R/B 1.9 22:19:54 17° ESE 22:20:59 27° ENE 22:22:51 10° N
Cosmos 2237 Rocket 2.2 22:15:25 10° SSW 22:21:04 69° ESE 22:26:47 10° NE
Genesis I 3.8 22:18:36 14° S 22:21:32 38° SE 22:25:10 10° ENE
Cosmos 2219 Rocket 2.9 22:18:11 10° SW 22:23:41 56° NW 22:29:15 10° NNE
Cosmos 2344 3.9 22:16:42 10° SSW 22:23:47 49° ESE 22:31:38 10° NE
Cosmos 2360 Rocket 4.2 22:21:17 10° W 22:26:18 31° NW 22:31:21 10° NNE
NOSS 3-3 (A) 4.1 22:20:18 10° SW 22:26:24 85° NW 22:33:27 10° NE
NOSS 3-3 (C) 4.1 22:20:24 10° SW 22:26:31 85° NW 22:33:34 10° NE
Thor Agena Rocket 3.5 22:23:21 10° NNE 22:28:32 89° ESE 22:33:18 12° SSW
Cosmos 2333 Rocket 3.2 22:28:24 10° WSW 22:33:56 49° NW 22:39:32 10° NNE
RESURS DK-1 3.7 22:34:14 10° NNW 22:38:07 37° NE 22:41:59 10° ESE
Cosmos 1515 Rocket 4.0 22:35:30 10° N 22:39:48 56° ENE 22:43:15 15° SSE
BREEZE-M DEB (TANK) 2.9 22:38:22 10° W 22:40:58 19° SSW 22:41:22 18° SSW
ATLAS 2AS CENTAUR R/B 3.4 22:33:55 10° NW 22:41:01 43° WSW 22:46:24 15° S
EO 1 Del DPAF 3.4 22:37:58 10° NNE 22:41:44 68° WNW 22:44:59 13° SSW
Cosmos 1892 4.2 22:42:36 10° SW 22:46:02 33° WNW 22:49:33 10° N
Cosmos 1328 Rocket 3.5 22:42:53 10° NNW 22:47:14 84° W 22:50:25 18° S
Aureole 2 Rocket 2.9 22:44:58 10° NW 22:47:33 34° WSW 22:48:59 20° SSW
Cosmos 1766 Rocket 3.6 22:44:24 17° S 22:47:43 73° E 22:52:09 10° NNE
USA 215 3.2 22:41:52 10° ENE 22:48:29 83° SSE 22:55:04 10° WSW
Cosmos 1606 3.0 22:45:45 10° NNW 22:49:36 61° W 22:52:19 18° S
Okean 3 Rocket 3.6 22:47:02 16° S 22:50:33 86° E 22:55:00 10° NNE
Cosmos 2278 Rocket 3.9 22:46:33 10° NW 22:50:43 21° WSW 22:54:51 10° SSW
Cosmos 2297 4.0 22:47:10 10° NW 22:52:47 55° WSW 22:57:11 16° S
Cosmos 304 Rocket 4.0 22:48:52 10° NNW 22:53:44 72° ENE 22:58:04 13° SE
Cosmos 2112 Rocket 4.2 22:48:43 10° SSW 22:54:05 77° WNW 22:59:29 10° NNE
Cosmos 2228 Rocket 3.9 22:50:58 10° N 22:55:27 48° ENE 22:59:19 13° SE
Cosmos 2218 Rocket 4.1 22:50:54 16° S 22:56:10 73° E 23:02:28 10° NNE
Cosmos 1420 Rocket 4.2 22:51:22 10° NNW 22:56:34 60° WSW 23:00:36 17° S
Cosmos 158 Rocket 4.2 22:53:24 10° SW 22:58:15 66° WNW 23:03:11 10° NNE
ATLAS 5 CENTAUR R/B 3.4 22:54:11 10° W 22:58:28 39° NNW 23:03:25 10° NE
Cosmos 1943 Rocket 2.2 22:53:51 10° NW 22:59:34 86° WSW 23:04:40 13° SSE
Lacrosse 5 rocket 1.1 22:56:21 10° WNW 23:00:26 79° SSW 23:04:16 10° ESE
Cosmos 2366 rocket 4.1 22:56:35 16° S 23:01:51 76° E 23:08:13 10° NNE
Cosmos 1633 3.4 23:01:11 18° SSE 23:03:28 38° E 23:06:50 10° NNE
SL-16 R/B 2.4 23:00:46 15° SSW 23:05:25 61° ESE 23:11:02 10° NE
Cosmos 1408 4.2 23:03:42 10° SW 23:06:52 29° WNW 23:10:03 10° N
Cosmos 1959 Rocket 4.5 23:06:20 16° S 23:11:27 87° E 23:17:43 10° NNE
YAOGAN 11 4.1 23:09:09 18° SSE 23:12:26 82° WSW 23:16:55 10° NNW
Cosmos 1743 Rocket 4.1 23:12:36 17° SSE 23:15:39 47° E 23:19:51 10° NNE
Cosmos 2341 Rocket 4.4 23:11:46 12° SSW 23:17:36 60° WNW 23:23:47 10° N
Cosmos 332 Rocket 4.0 23:13:15 10° NNW 23:17:59 57° WSW 23:21:29 17° S
Cosmos 1331 Rocket 4.3 23:12:53 10° NNW 23:18:13 68° ENE 23:23:31 10° SE
Cosmos 1680 Rocket 4.5 23:17:32 10° SW 23:22:40 46° NW 23:27:48 10° NNE
Meteor 2-3 Rocket 3.8 23:21:02 16° S 23:25:37 87° ESE 23:31:23 10° NNE
Cosmos 405 3.0 23:23:17 10° NNW 23:26:50 71° W 23:29:08 20° S
Helios 1A 3.4 23:24:53 18° S 23:27:44 49° W 23:31:49 10° NNW
Cosmos 2151 4.2 23:23:52 10° SW 23:27:50 36° WNW 23:31:48 10° N
Meteor 1-10 Rocket 4.4 23:25:09 10° N 23:30:46 68° ENE 23:35:50 12° SSE
Cosmos 1452 Rocket 4.0 23:26:15 10° NW 23:31:18 47° WSW 23:35:06 17° S
CZ-4C R/B 2.9 23:26:05 10° NW 23:32:57 81° SW 23:41:01 10° SE
Meteor 2-6 Rocket 4.2 23:27:40 10° NNW 23:33:14 81° ENE 23:37:54 14° SSE
Cosmos 389 Rocket 4.2 23:30:22 10° N 23:33:31 29° ENE 23:36:36 10° SE
PSLV R/B 4.0 23:29:25 10° NNE 23:33:32 50° E 23:36:34 17° S
COSMOS 2455 3.2 23:27:42 10° NW 23:33:33 51° WSW 23:38:25 15° SSE
Cosmos 1110 Rocket 4.0 23:30:04 10° NNW 23:35:23 88° WSW 23:40:16 12° SSE
SL-8 Rocket 4.4 23:30:59 12° SSW 23:36:34 58° WNW 23:42:40 10° N
Cosmos 1825 4.1 23:33:32 10° WSW 23:36:38 24° WNW 23:39:45 10° N
Cosmos 1151 Rocket 4.3 23:33:13 10° NNW 23:37:00 29° W 23:40:03 14° SW
Cosmos 1340 3.0 23:34:23 17° SSW 23:37:11 60° WNW 23:40:56 10° N
ALOS 2 4.2 23:35:27 12° SW 23:38:31 23° W 23:42:03 10° NW
Cosmos 1408 Rocket 3.8 23:35:56 16° SSW 23:39:22 62° WNW 23:43:46 10° N
SL-16 R/B 3.6 23:33:57 10° SE 23:39:48 44° ENE 23:45:42 10° N
Cosmos 1727 Rocket 4.3 23:36:58 10° NNW 23:43:02 56° W 23:48:04 15° SSW
Resurs 1-4 Rocket 4.0 23:39:46 10° NE 23:43:38 20° E 23:47:29 10° SE
APEX 4.2 23:41:44 10° WNW 23:43:41 18° WSW 23:44:22 16° SW
Cosmos 2369 Rocket 2.3 23:38:31 10° NW 23:44:02 62° WSW 23:48:49 14° SSE
SeaSat 1 4.2 23:44:09 10° ENE 23:47:46 20° ESE 23:51:20 10° SSE
Cosmos 44 3.0 23:43:37 11° SW 23:47:49 90° SE 23:52:22 10° NE
Cosmos 1500 Rocket 3.6 23:44:49 18° S 23:48:07 88° E 23:52:32 10° NNE
Helios 1B rocket 2.6 23:48:14 10° NNE 23:52:22 62° ESE 23:55:23 17° S
